[[{"header":{"parameterUnit":"m.s-1","parameterCategory":2,"la1":30.2991,"la2":30.254,"lo1":-89.0895,"lo2":-89.0444,"dy":0.0017,"dx":0.0017,"nx":28,"ny":28,"refTime":"2026-02-14T03:00:00:Z","depth":"0","parameterNumber":2,"parameterNumberName":"U-component_of_CURRENTS"},"data":[0,0,0,0,0,0,0,0,0,0,0,0,0,0,0,0,0,0,0,0,0,0,0,0,0,0,0,0,0,0,0,0,0,0,0,0,0,0,0,0,0,0,0,0,0,0,0,0,0,0,0,0,0,0,0,0,0,0,0.3202,0.3202,0,0.3217,0.3217,0.3217,0.3198,0.3197,0.3197,0.3196,0.3163,0.3163,0.3162,0,0,0,0,0,0,0,0,0,0,0,0,0,0.3159,0.316,0.3202,0.3202,0.3203,0.3217,0.3217,0.3217,0.3198,0.3197,0.3197,0.3196,0.3163,0.3163,0.3162,0,0,0,0,0,0,0,0,0,0,0,0,0,0.3174,0.316,0.3202,0.3197,0.3197,0.3217,0.3217,0.3217,0.3198,0.3197,0.3196,0.3196,0.3164,0.3163,0.3162,0.3171,0,0,0.316,0.316,0,0,0,0,0,0,0,0,0.3173,0.3175,0.3197,0.3197,0.3197,0.3207,0.319,0.32,0.3198,0.3195,0.3196,0.3196,0.3176,0.3174,0.3175,0.317,0.3168,0.316,0.316,0.3159,0.3159,0,0,0,0,0,0,0,0.3172,0.3174,0.3205,0.3198,0.3198,0.3195,0.3196,0.3192,0.3186,0.3195,0.3194,0.32,0.3175,0.3176,0.3174,0.3168,0.316,0.3159,0.3159,0.3159,0.3208,0.3209,0,0,0,0,0,0,0.3176,0.3173,0.3205,0.3206,0.3186,0.3197,0.3198,0.3202,0.3187,0.3185,0.3201,0.32,0.3177,0.3175,0.3173,0.3211,0.3159,0.3159,0.3158,0.3206,0.3208,0.321,0,0,0,0,0,0,0.3175,0.3179,0.3204,0.3192,0.3195,0.3198,0.3204,0.3203,0.3209,0.3193,0.3189,0.3209,0.3177,0.3174,0.3182,0.3208,0.3158,0.3158,0.3204,0.3207,0.3209,0.3268,0,0,0,0,0,0,0.3174,0.3178,0.3182,0.3192,0.3196,0.3225,0.3205,0.3204,0.3215,0.3213,0.3198,0.3194,0.3176,0.3184,0.3182,0.3206,0.3157,0.3202,0.3205,0.3208,0.3264,0.3272,0.3279,0,0,0,0,0,0.3172,0.3183,0.3182,0.3186,0.3202,0.3226,0.3228,0.3226,0.3216,0.3227,0.3219,0.3195,0.3203,0.3185,0.3182,0.3206,0.32,0.3204,0.3208,0.326,0.3271,0.3279,0,0,0,0,0,0,0.3162,0.3182,0.3182,0.3196,0.3214,0.3224,0.3234,0.3234,0.3236,0.3234,0.3211,0.3208,0.3231,0.3213,0.3193,0.3233,0.32,0.3204,0.3241,0.325,0.3258,0.3293,0.3157,0,0,0,0,0,0.3164,0.3179,0.3197,0.321,0.3221,0.3229,0.3238,0.3242,0.3247,0.3247,0.3237,0.3234,0.3245,0.3242,0.3247,0.326,0.3322,0.3277,0.3285,0.3292,0.332,0.3441,0.3463,0.3223,0.3223,0.3222,0,0,0.3164,0.3177,0.3185,0.3209,0.3221,0.3246,0.3233,0.3256,0.3276,0.3244,0.3263,0.3263,0.3258,0.3281,0.3289,0.3266,0.3397,0.3297,0.3302,0.3328,0.3447,0.3471,0.3492,0.3225,0.3225,0.3224,0,0,0.3176,0.3185,0.3203,0.3224,0.3251,0.3263,0.3273,0.3292,0.3299,0.3319,0.3312,0.3335,0.3327,0.3344,0.3348,0.3404,0.3441,0.3397,0.3454,0.357,0.3591,0.3611,0.3743,0.3774,0.3391,0.3392,0.3392,0,0.3175,0.32,0.3213,0.324,0.3262,0.3273,0.3304,0.3319,0.3336,0.337,0.3332,0.3388,0.3366,0.3432,0.3441,0.3423,0.3505,0.3413,0.3583,0.3603,0.3622,0.3753,0.3786,0.3395,0.3394,0.3394,0.3394,0,0.3202,0.3226,0.3242,0.3279,0.3306,0.3336,0.3364,0.3393,0.34,0.3429,0.3495,0.348,0.3526,0.351,0.3482,0.3603,0.3626,0.3587,0.3562,0.3651,0.3782,0.3816,0.34,0.3398,0.3397,0.3397,0,0,0.3192,0.3249,0.3255,0.3291,0.3331,0.3367,0.341,0.3477,0.3554,0.3551,0.3648,0.3641,0.3664,0.3672,0.3654,0.3723,0.3908,0.3709,0.3714,0.3847,0.4204,0.4153,0.4185,0.3906,0.3912,0.3916,0.425,0,0.321,0.327,0.3291,0.3359,0.34,0.3435,0.3493,0.3559,0.3614,0.3712,0.3725,0.3802,0.3718,0.3755,0.3816,0.3893,0.3997,0.3823,0.4093,0.4102,0.4051,0.4221,0.4023,0.4298,0.4283,0.4289,0.4293,0,0.3232,0.3274,0.3337,0.3435,0.3459,0.3501,0.3633,0.3688,0.3821,0.3872,0.3953,0.3981,0.4083,0.399,0.4199,0.4099,0.4172,0.4215,0.4228,0.4186,0.4113,0.4202,0.436,0.4222,0.4345,0.4341,0.4337,0,0.3241,0.3314,0.3371,0.3398,0.3501,0.3549,0.3611,0.3743,0.3837,0.3993,0.4095,0.4204,0.4301,0.4385,0.4449,0.436,0.4696,0.4585,0.4622,0.462,0.4507,0.4485,0.4566,0.4774,0.4774,0.4773,0.4772,0,0.3266,0.3322,0.3384,0.3422,0.3527,0.3585,0.3728,0.3814,0.3971,0.4118,0.4186,0.4327,0.4411,0.4575,0.4586,0.4739,0.4827,0.4701,0.4722,0.4521,0.4497,0.4411,0.4356,0.4785,0.4783,0.478,0.4778,0,0.3301,0.3326,0.3411,0.3504,0.3537,0.3622,0.3776,0.3894,0.4039,0.4234,0.4289,0.4507,0.4718,0.4805,0.5001,0.4955,0.4933,0.5091,0.4856,0.4841,0.4659,0.4614,0.4618,0.4478,0.5191,0.5192,0.5193,0,0.334,0.338,0.3466,0.3515,0.3561,0.3678,0.3768,0.391,0.4033,0.4329,0.4428,0.4704,0.487,0.516,0.5138,0.5231,0.5039,0.51,0.4858,0.4687,0.4655,0.4441,0.4305,0.4759,0.4756,0.4754,0.4752,0,0.3433,0.3448,0.3511,0.3583,0.3662,0.376,0.3884,0.3976,0.4163,0.433,0.4568,0.4726,0.5003,0.502,0.5154,0.5149,0.4831,0.5054,0.4946,0.4407,0.4117,0.3976,0.4517,0.4732,0.4734,0.4735,0.4736,0.4737,0.3507,0.3556,0.3603,0.3677,0.3746,0.3809,0.3848,0.3986,0.4142,0.432,0.4546,0.4689,0.4835,0.4975,0.4961,0.4771,0.4733,0.4583,0.4583,0.441,0.4136,0.4643,0.4812,0.4815,0.4817,0.4819,0.482,0,0.3597,0.363,0.3697,0.3743,0.3768,0.3803,0.3902,0.3911,0.4014,0.4205,0.4362,0.4435,0.4506,0.4552,0.4463,0.4299,0.4061,0.4191,0.3833,0.3748,0.4285,0.4118,0.4057,0.4057,0.4057,0.4057,0.4057,0.4058,0.3649,0.3708,0.3716,0.374,0.3745,0.3703,0.3708,0.3747,0.3829,0.3878,0.3867,0.3939,0.4112,0.4229,0.4068,0.396,0.3631,0.3499,0.3497,0.3858,0.3891,0.3922,0.3748,0.3612,0.3611,0.2736,0.273,0.2726]},{"header":{"parameterUnit":"m.s-1","parameterCategory":2,"la1":30.2991,"la2":30.254,"lo1":-89.0895,"lo2":-89.0444,"dy":0.0017,"dx":0.0017,"nx":28,"ny":28,"refTime":"2026-02-14T03:00:00:Z","depth":"0","parameterNumber":3,"parameterNumberName":"V-component_of_CURRENTS"},"data":[0,0,0,0,0,0,0,0,0,0,0,0,0,0,0,0,0,0,0,0,0,0,0,0,0,0,0,0,0,0,0,0,0,0,0,0,0,0,0,0,0,0,0,0,0,0,0,0,0,0,0,0,0,0,0,0,0,0,0.0115,0.0114,0,0.0035,0.0034,0.0033,-0.0024,-0.0024,-0.0024,-0.0024,-0.0112,-0.0114,-0.0116,0,0,0,0,0,0,0,0,0,0,0,0,0,0.0154,0.0154,0.0115,0.0114,0.0113,0.0036,0.0034,0.0033,-0.0024,-0.0024,-0.0024,-0.0025,-0.0111,-0.0113,-0.0116,0,0,0,0,0,0,0,0,0,0,0,0,0,0.011,0.0154,0.0115,0.0077,0.0073,0.0036,0.0034,0.0033,-0.0024,-0.0024,-0.0024,-0.0025,-0.011,-0.0113,-0.0116,-0.0128,0,0,-0.0126,-0.0127,0,0,0,0,0,0,0,0,0.0113,0.0109,0.0084,0.008,0.0075,0.0017,0.0016,-0.0021,-0.0023,0.0011,-0.0024,-0.0025,-0.0067,-0.0074,-0.0091,-0.0132,-0.0135,-0.0126,-0.0128,-0.0129,-0.013,0,0,0,0,0,0,0,0.0116,0.0111,0.0081,0.0083,0.0078,0.0043,0.0037,0.0009,-0.0027,0.0008,0.0004,-0.0001,-0.007,-0.0088,-0.0094,-0.0137,-0.0126,-0.0129,-0.0131,-0.0132,-0.0187,-0.0187,0,0,0,0,0,0,0.0134,0.0115,0.0084,0.0079,0.0096,0.0043,0.0036,0.0035,-0.0027,-0.0036,-0.0001,-0.0003,-0.0083,-0.009,-0.0097,-0.0096,-0.0129,-0.0132,-0.0134,-0.0188,-0.0187,-0.0187,0,0,0,0,0,0,0.0135,0.0132,0.0087,0.0096,0.0088,0.0043,0.0042,0.0033,0.002,-0.0033,-0.0042,-0.0004,-0.0083,-0.0093,-0.0115,-0.01,-0.0134,-0.0136,-0.0188,-0.0188,-0.0187,-0.0105,0,0,0,0,0,0,0.0137,0.0133,0.0138,0.0098,0.0089,0.0078,0.0042,0.0032,0.0018,0.0014,-0.0039,-0.0048,-0.0084,-0.011,-0.0118,-0.0105,-0.0139,-0.0189,-0.0188,-0.0187,-0.0108,-0.0102,-0.0096,0,0,0,0,0,0.0139,0.0154,0.0139,0.0135,0.0097,0.0079,0.0071,0.0035,0.0019,0.002,-0.0018,-0.0046,-0.0112,-0.0112,-0.0122,-0.0109,-0.0189,-0.0188,-0.0187,-0.0111,-0.0103,-0.0096,0,0,0,0,0,0,0.0173,0.0148,0.0131,0.0137,0.0114,0.007,0.0069,0.0044,0.0014,0.0011,-0.0042,-0.0053,-0.0068,-0.01,-0.01,-0.0124,-0.0155,-0.0155,-0.0093,-0.0086,-0.008,-0.0053,-0.0141,0,0,0,0,0,0.0184,0.0188,0.0156,0.016,0.0154,0.0112,0.01,0.0078,0.0047,0.0033,-0.0004,-0.0043,-0.0073,-0.0087,-0.012,-0.0131,-0.0143,-0.013,-0.0124,-0.0118,-0.0103,-0.0118,-0.0111,-0.0184,-0.0184,-0.0184,0,0,0.0197,0.0185,0.0186,0.0168,0.0146,0.015,0.0104,0.0096,0.0097,0.0029,0.002,-0.0022,-0.0072,-0.0087,-0.0096,-0.011,-0.01,-0.0117,-0.0112,-0.0099,-0.0116,-0.0109,-0.0102,-0.0183,-0.0183,-0.0183,0,0,0.0234,0.0218,0.0235,0.0224,0.0204,0.0181,0.0185,0.0148,0.0131,0.0114,0.0067,0.0035,-0.001,-0.0043,-0.0065,-0.0045,-0.0069,-0.0055,0.0,-0.0014,-0.0008,-0.0003,0.0011,0.0017,-0.005,-0.005,-0.005,0,0.0251,0.0269,0.0237,0.0252,0.0254,0.0203,0.0226,0.02,0.0161,0.0158,0.0125,0.0061,0.0011,-0.0001,-0.0001,-0.003,-0.003,-0.0022,-0.0004,0.0,0.0004,0.0017,0.0022,-0.0046,-0.0047,-0.0047,-0.0047,0,0.03,0.0314,0.0326,0.0329,0.0326,0.0338,0.0306,0.0298,0.0268,0.0243,0.0221,0.0148,0.0114,0.0088,0.0046,0.0053,0.0047,0.0005,-0.0017,0.0017,0.0028,0.0032,-0.004,-0.0042,-0.0043,-0.0044,0,0,0.0341,0.0359,0.0363,0.0387,0.0372,0.0381,0.0385,0.0381,0.0403,0.034,0.0362,0.0277,0.0238,0.0209,0.0151,0.0129,0.0148,0.0088,0.0085,0.0114,0.0148,0.0148,0.0152,0.0114,0.0114,0.0115,0.0151,0,0.0391,0.0449,0.0437,0.0491,0.0522,0.0488,0.0501,0.0489,0.047,0.0478,0.0395,0.0382,0.0284,0.0272,0.0235,0.018,0.0161,0.0145,0.01,0.0099,0.0104,0.0157,0.0137,0.0168,0.0155,0.0156,0.0156,0,0.0445,0.048,0.0545,0.059,0.0601,0.0617,0.0649,0.066,0.0645,0.063,0.0595,0.0533,0.049,0.0396,0.032,0.0319,0.0242,0.0186,0.0185,0.0161,0.0107,0.0125,0.0175,-0.0048,0.0162,0.0162,0.0161,0,0.0505,0.0559,0.0619,0.0633,0.0666,0.0687,0.0704,0.0706,0.0747,0.0734,0.0769,0.0681,0.0679,0.0554,0.0429,0.0379,0.0365,0.0274,0.0202,0.0202,0.0164,0.0159,0.0002,0.0215,0.0215,0.0215,0.0215,0,0.0569,0.062,0.0653,0.0688,0.0768,0.0762,0.0847,0.0845,0.0882,0.0968,0.0858,0.092,0.0721,0.0678,0.0512,0.0406,0.0427,0.0237,0.0214,0.0193,0.0191,-0.0024,-0.0154,0.0216,0.0216,0.0216,0.0215,0,0.0631,0.0648,0.0727,0.0777,0.0799,0.086,0.0948,0.1014,0.1033,0.1148,0.1151,0.113,0.1089,0.0898,0.0744,0.0556,0.0293,0.0362,0.0369,0.0345,0.0028,-0.0095,-0.0251,-0.0345,0.0276,0.0276,0.0276,0,0.067,0.0715,0.0799,0.0855,0.0881,0.097,0.1037,0.108,0.1167,0.1297,0.1368,0.137,0.1425,0.1214,0.0873,0.0609,0.0365,0.0376,0.0244,0.0033,-0.0122,-0.0222,-0.0297,0.0235,0.0234,0.0234,0.0234,0,0.0751,0.0773,0.0839,0.0946,0.1026,0.114,0.1242,0.1333,0.1419,0.1548,0.1727,0.1795,0.1614,0.1368,0.0983,0.0753,0.02,0.0365,0.0132,-0.0167,-0.0272,-0.0379,0.0204,0.0233,0.0233,0.0233,0.0234,0.0234,0.0811,0.087,0.0944,0.1048,0.1149,0.1285,0.1398,0.1539,0.1724,0.1954,0.2008,0.2197,0.1779,0.1276,0.0923,0.0222,0.0219,-0.0024,-0.0149,-0.0224,-0.0347,0.0256,0.0259,0.0259,0.0259,0.0259,0.026,0,0.0885,0.0944,0.1042,0.1169,0.129,0.1329,0.152,0.1661,0.1907,0.2186,0.239,0.2324,0.1786,0.119,0.0251,-0.0223,-0.0422,-0.0486,-0.0669,-0.0718,-0.0192,-0.023,-0.0316,-0.0316,-0.0315,-0.0315,-0.0315,-0.0315,0.0926,0.1022,0.1062,0.1254,0.1355,0.1535,0.1653,0.1887,0.2117,0.2482,0.2653,0.2746,0.2252,0.061,-0.0489,-0.073,-0.1087,-0.1156,-0.1299,-0.0998,-0.0966,-0.0935,-0.1004,-0.125,-0.1251,-0.1788,-0.1794,-0.1798]}],[{"header":{"parameterUnit":"m.s-1","parameterCategory":2,"la1":30.2991,"la2":30.254,"lo1":-89.0895,"lo2":-89.0444,"dy":0.0017,"dx":0.0017,"nx":28,"ny":28,"refTime":"2026-02-14T03:00:00:Z","depth":"2","parameterNumber":2,"parameterNumberName":"U-component_of_CURRENTS"},"data":[0,0,0,0,0,0,0,0,0,0,0,0,0,0,0,0,0,0,0,0,0,0,0,0,0,0,0,0,0,0,0,0,0,0,0,0,0,0,0,0,0,0,0,0,0,0,0,0,0,0,0,0,0,0,0,0,0,0,0.2649,0.265,0,0.2684,0.2685,0.2685,0.2686,0.2685,0.2685,0.2685,0.2695,0.2695,0.2695,0,0,0,0,0,0,0,0,0,0,0,0,0,0.2593,0.2594,0.2649,0.265,0.265,0.2684,0.2685,0.2685,0.2686,0.2685,0.2685,0.2685,0.2694,0.2695,0.2695,0,0,0,0,0,0,0,0,0,0,0,0,0,0.2619,0.2594,0.2649,0.2657,0.2658,0.2684,0.2685,0.2685,0.2686,0.2685,0.2685,0.2685,0.2694,0.2695,0.2696,0.2706,0,0,0.2698,0.2698,0,0,0,0,0,0,0,0,0.2618,0.2621,0.2655,0.2656,0.2658,0.2682,0.2669,0.2691,0.2686,0.2672,0.2685,0.2685,0.269,0.2691,0.2695,0.2706,0.2707,0.2698,0.2698,0.2698,0.2699,0,0,0,0,0,0,0,0.2616,0.262,0.266,0.2656,0.2657,0.2662,0.2665,0.2673,0.268,0.2673,0.2674,0.2682,0.269,0.2694,0.2695,0.2707,0.2698,0.2698,0.2699,0.2699,0.2774,0.2776,0,0,0,0,0,0,0.2617,0.2618,0.2659,0.2662,0.264,0.2664,0.2667,0.2673,0.268,0.2682,0.2683,0.2682,0.2693,0.2694,0.2696,0.2747,0.2698,0.2699,0.2699,0.2773,0.2775,0.2776,0,0,0,0,0,0,0.2615,0.262,0.2658,0.2643,0.2648,0.2665,0.2672,0.2674,0.2688,0.2688,0.2689,0.2697,0.2693,0.2695,0.2718,0.2746,0.2699,0.27,0.2771,0.2773,0.2775,0.2824,0,0,0,0,0,0,0.2613,0.2619,0.2626,0.2643,0.2649,0.2683,0.2672,0.2675,0.2694,0.2694,0.27,0.27,0.2693,0.2718,0.2719,0.2746,0.27,0.2769,0.2772,0.2775,0.2821,0.2828,0.2834,0,0,0,0,0,0.2611,0.2621,0.2626,0.2632,0.2657,0.2684,0.2688,0.2697,0.2696,0.2708,0.2715,0.2701,0.2738,0.2719,0.2721,0.2748,0.2767,0.2771,0.2774,0.2818,0.2827,0.2834,0,0,0,0,0,0,0.2598,0.2623,0.2629,0.2645,0.2668,0.2686,0.27,0.2706,0.2722,0.2725,0.2718,0.2719,0.2754,0.2746,0.2726,0.2781,0.2752,0.2756,0.2784,0.2793,0.2799,0.2812,0.2701,0,0,0,0,0,0.26,0.2616,0.264,0.2656,0.2669,0.2687,0.27,0.271,0.2726,0.2733,0.2738,0.2749,0.2769,0.2776,0.279,0.2815,0.2838,0.2835,0.2842,0.2848,0.2861,0.292,0.2933,0.2788,0.2788,0.2788,0,0,0.2599,0.2617,0.2625,0.2655,0.2673,0.2699,0.2694,0.2723,0.2747,0.2732,0.2765,0.2776,0.2784,0.2817,0.2831,0.2812,0.2906,0.2853,0.2857,0.2867,0.2925,0.2939,0.2952,0.2791,0.279,0.279,0,0,0.2608,0.2623,0.2641,0.2664,0.27,0.2715,0.2727,0.2755,0.2771,0.2804,0.2807,0.2837,0.2853,0.2873,0.2882,0.2937,0.2944,0.2939,0.2978,0.3035,0.3048,0.3059,0.3122,0.3138,0.2937,0.2937,0.2937,0,0.2607,0.263,0.2651,0.2678,0.27,0.2725,0.2752,0.2777,0.2809,0.2831,0.2821,0.2882,0.2885,0.2939,0.2958,0.2954,0.2988,0.2943,0.3045,0.3056,0.3067,0.3128,0.3146,0.294,0.294,0.2939,0.2939,0,0.2628,0.2652,0.2668,0.2708,0.2737,0.2766,0.2804,0.2836,0.2856,0.2879,0.294,0.2956,0.2992,0.3,0.2993,0.3072,0.3075,0.305,0.3022,0.3084,0.3145,0.3163,0.2944,0.2943,0.2942,0.2941,0,0,0.2609,0.2669,0.2675,0.2698,0.2755,0.2779,0.2832,0.2885,0.293,0.2962,0.3023,0.3059,0.3076,0.309,0.3096,0.314,0.3245,0.3128,0.313,0.3189,0.3387,0.3336,0.335,0.3238,0.3241,0.3243,0.3404,0,0.2619,0.2663,0.2697,0.2746,0.2773,0.282,0.2869,0.2923,0.2973,0.3039,0.3077,0.3137,0.3109,0.3141,0.3183,0.3238,0.3291,0.3204,0.3319,0.3323,0.3269,0.3368,0.3092,0.3207,0.3421,0.3424,0.3426,0,0.2623,0.2655,0.2697,0.2767,0.2785,0.2821,0.2909,0.296,0.3059,0.3107,0.3175,0.3209,0.3297,0.3257,0.3385,0.3333,0.3369,0.3399,0.3405,0.3353,0.3305,0.3178,0.323,0.3455,0.3453,0.345,0.3448,0,0.2587,0.2654,0.2685,0.2708,0.2791,0.2825,0.2877,0.2974,0.304,0.3163,0.323,0.3319,0.3394,0.3447,0.3507,0.3461,0.3647,0.3586,0.3577,0.3574,0.3359,0.3332,0.3679,0.3679,0.3679,0.3678,0.3678,0,0.2576,0.2602,0.267,0.2687,0.274,0.2809,0.2888,0.2961,0.3087,0.3173,0.3263,0.3353,0.3447,0.3549,0.3569,0.3646,0.3703,0.3618,0.3622,0.3369,0.3343,0.3559,0.3543,0.3684,0.3683,0.3682,0.3681,0,0.253,0.2572,0.2611,0.2692,0.2721,0.276,0.2887,0.2948,0.3082,0.3206,0.3255,0.3426,0.3563,0.3648,0.3771,0.3741,0.3804,0.3808,0.3515,0.3481,0.3677,0.3662,0.3822,0.3822,0.3822,0.3822,0.3821,0,0.2508,0.2522,0.2598,0.2622,0.2658,0.2732,0.2784,0.2925,0.2998,0.3233,0.3283,0.3482,0.3573,0.3758,0.377,0.3831,0.3859,0.3591,0.3439,0.3709,0.3697,0.3682,0.3667,0.3183,0.3177,0.3173,0.3169,0,0.247,0.2496,0.2533,0.2574,0.2619,0.2667,0.2755,0.2814,0.2985,0.3096,0.3252,0.3354,0.3562,0.3512,0.3618,0.3598,0.3554,0.3504,0.3886,0.3185,0.3118,0.3102,0.3106,0.313,0.3134,0.3137,0.3139,0.3141,0.2441,0.2447,0.2488,0.2517,0.2562,0.2573,0.2564,0.2678,0.2765,0.2898,0.3093,0.3169,0.327,0.3293,0.3227,0.3191,0.3419,0.3247,0.3255,0.3269,0.3162,0.3098,0.3088,0.3091,0.3094,0.3097,0.3099,0,0.237,0.2391,0.2426,0.2417,0.2403,0.2483,0.2514,0.2481,0.2515,0.271,0.2817,0.2682,0.2706,0.2803,0.2698,0.2721,0.264,0.2601,0.2457,0.2501,0.254,0.2387,0.2112,0.2108,0.2104,0.2101,0,0,0.2345,0.2326,0.2334,0.2261,0.2268,0.2204,0.2198,0.2168,0.224,0.2272,0.2326,0.26,0.2739,0.2383,0.236,0.2209,0.2321,0.2128,0.2934,0.281,0.2842,0.2947,0.2769,0,0,0,0,0]},{"header":{"parameterUnit":"m.s-1","parameterCategory":2,"la1":30.2991,"la2":30.254,"lo1":-89.0895,"lo2":-89.0444,"dy":0.0017,"dx":0.0017,"nx":28,"ny":28,"refTime":"2026-02-14T03:00:00:Z","depth":"2","parameterNumber":3,"parameterNumberName":"V-component_of_CURRENTS"},"data":[0,0,0,0,0,0,0,0,0,0,0,0,0,0,0,0,0,0,0,0,0,0,0,0,0,0,0,0,0,0,0,0,0,0,0,0,0,0,0,0,0,0,0,0,0,0,0,0,0,0,0,0,0,0,0,0,0,0,0.0086,0.0085,0,0.0018,0.0017,0.0016,-0.0031,-0.0031,-0.0031,-0.0031,-0.0105,-0.0107,-0.0109,0,0,0,0,0,0,0,0,0,0,0,0,0,0.0122,0.0122,0.0086,0.0085,0.0085,0.0018,0.0017,0.0016,-0.0031,-0.0031,-0.0031,-0.0031,-0.0105,-0.0107,-0.0109,0,0,0,0,0,0,0,0,0,0,0,0,0,0.0084,0.0121,0.0086,0.0055,0.0051,0.0018,0.0017,0.0015,-0.0031,-0.0031,-0.0031,-0.0031,-0.0104,-0.0107,-0.0109,-0.012,0,0,-0.0118,-0.0119,0,0,0,0,0,0,0,0,0.0086,0.0082,0.006,0.0057,0.0053,0.0003,0.0002,-0.003,-0.003,-0.0001,-0.0031,-0.0032,-0.0068,-0.0074,-0.0088,-0.0124,-0.0127,-0.0118,-0.0119,-0.0121,-0.0121,0,0,0,0,0,0,0,0.0089,0.0085,0.0057,0.0059,0.0055,0.0025,0.002,-0.0004,-0.0034,-0.0004,-0.0007,-0.0012,-0.007,-0.0086,-0.009,-0.0128,-0.0118,-0.012,-0.0122,-0.0123,-0.0172,-0.0171,0,0,0,0,0,0,0.0104,0.0088,0.0059,0.0055,0.0071,0.0025,0.0019,0.0018,-0.0033,-0.0041,-0.0011,-0.0014,-0.0081,-0.0087,-0.0093,-0.0093,-0.0121,-0.0123,-0.0125,-0.0172,-0.0172,-0.0171,0,0,0,0,0,0,0.0105,0.0102,0.0062,0.0071,0.0064,0.0026,0.0024,0.0017,0.0005,-0.0039,-0.0047,-0.0015,-0.0081,-0.0089,-0.0109,-0.0097,-0.0124,-0.0127,-0.0172,-0.0172,-0.0171,-0.0103,0,0,0,0,0,0,0.0106,0.0103,0.0107,0.0072,0.0064,0.0053,0.0025,0.0016,0.0003,-0.0,-0.0044,-0.0052,-0.0082,-0.0105,-0.0112,-0.0101,-0.0129,-0.0173,-0.0172,-0.0172,-0.0106,-0.01,-0.0096,0,0,0,0,0,0.0108,0.0119,0.0107,0.0104,0.0071,0.0054,0.0047,0.0017,0.0004,0.0004,-0.0027,-0.005,-0.0106,-0.0107,-0.0115,-0.0105,-0.0173,-0.0172,-0.0172,-0.0108,-0.0101,-0.0096,0,0,0,0,0,0,0.0135,0.0115,0.0101,0.0105,0.0085,0.0047,0.0045,0.0024,-0.0001,-0.0003,-0.0047,-0.0057,-0.007,-0.0097,-0.0097,-0.0118,-0.0143,-0.0144,-0.0092,-0.0086,-0.0081,-0.0061,-0.0131,0,0,0,0,0,0.0144,0.0148,0.0121,0.0123,0.0117,0.0082,0.0071,0.0053,0.0026,0.0014,-0.0017,-0.0049,-0.0075,-0.0087,-0.0115,-0.0124,-0.0152,-0.0124,-0.0119,-0.0114,-0.0104,-0.0138,-0.0134,-0.0169,-0.0169,-0.0169,0,0,0.0155,0.0144,0.0145,0.0129,0.0111,0.0114,0.0075,0.0067,0.0068,0.0011,0.0004,-0.0033,-0.0074,-0.0087,-0.0095,-0.0106,-0.0119,-0.0113,-0.0109,-0.0101,-0.0136,-0.0133,-0.013,-0.0168,-0.0168,-0.0169,0,0,0.0184,0.017,0.0186,0.0176,0.0159,0.0139,0.0142,0.0111,0.0096,0.0081,0.0042,0.0016,-0.0024,-0.005,-0.0069,-0.0052,-0.0092,-0.0062,-0.0018,-0.0051,-0.0048,-0.0046,-0.0073,-0.0074,-0.0058,-0.0058,-0.0058,0,0.0198,0.0214,0.0187,0.02,0.0202,0.0158,0.0178,0.0156,0.0121,0.0116,0.009,0.0032,-0.0005,-0.0019,-0.0016,-0.0039,-0.0064,-0.0036,-0.0043,-0.0042,-0.0041,-0.007,-0.0071,-0.0054,-0.0055,-0.0055,-0.0055,0,0.0239,0.0252,0.0261,0.0267,0.0264,0.0273,0.0246,0.0238,0.0212,0.0187,0.0164,0.0106,0.0075,0.0055,0.0023,0.0015,-0.0007,-0.0034,-0.0055,-0.0033,-0.0065,-0.0068,-0.0049,-0.0051,-0.0052,-0.0053,0,0,0.0273,0.0289,0.0293,0.0314,0.0303,0.031,0.0313,0.0306,0.0318,0.0265,0.0271,0.0209,0.0173,0.0149,0.0102,0.0069,0.0049,0.0027,0.0024,0.0007,-0.0019,-0.0049,-0.0056,0.002,0.002,0.002,-0.0043,0,0.0315,0.0364,0.0356,0.0403,0.0429,0.04,0.0409,0.0395,0.0374,0.0367,0.0296,0.028,0.021,0.0199,0.0154,0.0079,0.0044,0.0069,-0.0044,-0.0047,-0.0071,-0.0059,-0.0032,-0.0087,-0.0046,-0.0047,-0.0047,0,0.0359,0.039,0.0446,0.0483,0.0491,0.0507,0.0526,0.0532,0.0503,0.0487,0.045,0.0392,0.0337,0.0274,0.0154,0.0173,0.0087,0.002,0.0015,-0.0037,-0.0083,-0.0104,-0.0095,-0.0053,-0.0052,-0.0052,-0.0052,0,0.0406,0.0454,0.0506,0.0518,0.0546,0.0563,0.0576,0.0567,0.0598,0.0569,0.0582,0.0491,0.0464,0.0337,0.0189,0.0174,0.0055,0.0015,-0.0095,-0.0098,-0.0109,-0.0112,-0.0068,-0.0068,-0.0068,-0.0068,-0.0068,0,0.0457,0.0499,0.0533,0.0562,0.063,0.0623,0.069,0.0684,0.0702,0.0756,0.0651,0.0669,0.0479,0.0382,0.0229,0.0063,0.0082,-0.0081,-0.0115,-0.0085,-0.0085,-0.0085,-0.0086,-0.007,-0.007,-0.0069,-0.0069,0,0.0501,0.0519,0.0586,0.0632,0.0654,0.0703,0.0781,0.0834,0.0828,0.0897,0.0894,0.0812,0.0685,0.0483,0.0288,0.0133,-0.0035,-0.01,-0.0051,-0.0078,-0.0177,-0.0174,-0.0228,-0.0229,-0.0231,-0.0232,-0.0233,0,0.0528,0.0566,0.0646,0.0699,0.0725,0.0803,0.0864,0.0895,0.0969,0.0995,0.104,0.0933,0.0881,0.057,0.0279,0.0002,-0.0034,-0.016,-0.0193,-0.0165,-0.0193,-0.0188,-0.0183,-0.0181,-0.0181,-0.0181,-0.0182,0,0.0585,0.0608,0.0668,0.0778,0.0855,0.0959,0.1052,0.1131,0.118,0.1228,0.1277,0.1232,0.0934,0.0658,0.0262,0.0071,-0.012,-0.0177,-0.0154,-0.0145,-0.0127,-0.0152,-0.0148,-0.0185,-0.0184,-0.0184,-0.0184,-0.0184,0.0629,0.0681,0.076,0.0868,0.0966,0.1098,0.12,0.1306,0.1424,0.1509,0.1461,0.1404,0.1069,0.0573,0.0225,-0.0142,-0.013,-0.0257,-0.0254,-0.025,-0.0235,-0.022,-0.0292,-0.0292,-0.0292,-0.0293,-0.0293,0,0.0687,0.0748,0.0849,0.0976,0.1096,0.1144,0.1317,0.1419,0.1568,0.1636,0.1666,0.1355,0.1027,0.0644,0.0101,-0.0231,-0.0253,-0.0333,-0.0283,-0.0278,-0.0274,-0.0258,-0.0322,-0.0323,-0.0324,-0.0325,0,0,0.0718,0.0818,0.0868,0.1063,0.1166,0.1344,0.1455,0.1587,0.1678,0.1742,0.1718,0.1638,0.1161,0.0768,0.031,-0.0,-0.0061,-0.0065,-0.0006,0.0111,0.012,-0.0199,-0.0165,0,0,0,0,0]}],[{"header":{"parameterUnit":"m.s-1","parameterCategory":2,"la1":30.2991,"la2":30.254,"lo1":-89.0895,"lo2":-89.0444,"dy":0.0017,"dx":0.0017,"nx":28,"ny":28,"refTime":"2026-02-14T03:00:00:Z","depth":"4","parameterNumber":2,"parameterNumberName":"U-component_of_CURRENTS"},"data":[0,0,0,0,0,0,0,0,0,0,0,0,0,0,0,0,0,0,0,0,0,0,0,0,0,0,0,0,0,0,0,0,0,0,0,0,0,0,0,0,0,0,0,0,0,0,0,0,0,0,0,0,0,0,0,0,0,0,0.1762,0.1763,0,0.1837,0.1837,0.1838,0.1898,0.1898,0.1899,0.19,0.1989,0.1991,0.1993,0,0,0,0,0,0,0,0,0,0,0,0,0,0.1673,0.1674,0.1762,0.1763,0.1764,0.1836,0.1837,0.1838,0.1897,0.1898,0.1899,0.19,0.1989,0.1991,0.1993,0,0,0,0,0,0,0,0,0,0,0,0,0,0.1724,0.1674,0.1762,0.1803,0.1808,0.1836,0.1837,0.1838,0.1897,0.1898,0.19,0.1901,0.1988,0.1991,0.1993,0.1986,0,0,0.2001,0.2002,0,0,0,0,0,0,0,0,0.1721,0.1727,0.1796,0.1801,0.1806,0.186,0.1839,0.1889,0.1897,0.1862,0.19,0.1901,0.1948,0.1954,0.1963,0.199,0.1994,0.2001,0.2003,0.2004,0.2004,0,0,0,0,0,0,0,0.1717,0.1724,0.179,0.1797,0.1803,0.182,0.1828,0.1849,0.1896,0.1865,0.187,0.188,0.1951,0.196,0.1965,0.1995,0.2001,0.2003,0.2005,0.2006,0.2133,0.2135,0,0,0,0,0,0,0.171,0.1721,0.1787,0.1792,0.1767,0.182,0.183,0.184,0.1896,0.1906,0.1879,0.1883,0.1955,0.1962,0.1969,0.2064,0.2004,0.2006,0.2007,0.2132,0.2134,0.2136,0,0,0,0,0,0,0.1708,0.1716,0.1784,0.1759,0.177,0.1821,0.1832,0.1841,0.1889,0.1907,0.1918,0.1923,0.1956,0.1965,0.2024,0.2064,0.2007,0.2009,0.2129,0.2132,0.2135,0.2191,0,0,0,0,0,0,0.1705,0.1714,0.1738,0.1759,0.1771,0.1825,0.1832,0.1842,0.1892,0.1899,0.1947,0.1954,0.1958,0.202,0.2027,0.2067,0.2011,0.2127,0.2131,0.2134,0.2186,0.2195,0.2202,0,0,0,0,0,0.1702,0.1722,0.1738,0.1747,0.1795,0.1826,0.1834,0.1872,0.1894,0.1919,0.1958,0.1955,0.2047,0.2024,0.2031,0.2073,0.2125,0.213,0.2134,0.2183,0.2193,0.2202,0,0,0,0,0,0,0.1697,0.1731,0.1749,0.178,0.1813,0.1838,0.1871,0.1893,0.1942,0.1963,0.1977,0.1987,0.2054,0.2056,0.203,0.2121,0.2087,0.2092,0.2122,0.2132,0.2139,0.2138,0.2013,0,0,0,0,0,0.1705,0.1734,0.1763,0.1794,0.1814,0.1849,0.1875,0.1901,0.1938,0.1963,0.1996,0.2034,0.2069,0.2096,0.2124,0.2171,0.2177,0.2204,0.2212,0.2219,0.2224,0.2265,0.2277,0.215,0.215,0.215,0,0,0.1713,0.1737,0.1755,0.1797,0.1828,0.186,0.1869,0.1919,0.1957,0.1963,0.2039,0.2067,0.2089,0.2146,0.2176,0.2158,0.2261,0.2224,0.223,0.2231,0.2271,0.2283,0.2294,0.2153,0.2152,0.2152,0,0,0.1729,0.1766,0.1792,0.1823,0.1876,0.1896,0.1918,0.1965,0.2004,0.2065,0.2085,0.2139,0.2192,0.2217,0.2233,0.2302,0.2302,0.2319,0.2359,0.24,0.2411,0.242,0.2452,0.2463,0.2322,0.2322,0.2322,0,0.1742,0.1774,0.1806,0.1839,0.1871,0.1915,0.195,0.199,0.2055,0.2088,0.2101,0.22,0.2223,0.2286,0.2315,0.2321,0.2342,0.2318,0.241,0.2419,0.2428,0.2458,0.247,0.2325,0.2325,0.2325,0.2324,0,0.1764,0.1807,0.1828,0.1882,0.192,0.1962,0.2012,0.2067,0.2118,0.2152,0.2241,0.2278,0.2334,0.2355,0.2358,0.2436,0.2431,0.2414,0.2382,0.2444,0.2472,0.2483,0.233,0.2329,0.2328,0.2327,0,0,0.1746,0.1828,0.1839,0.1873,0.195,0.1976,0.2052,0.2117,0.2173,0.2243,0.2312,0.2381,0.241,0.2432,0.2452,0.2492,0.2575,0.2487,0.2488,0.2512,0.2671,0.2514,0.2511,0.2579,0.2581,0.2583,0.2668,0,0.1758,0.1815,0.186,0.1926,0.1958,0.2027,0.2088,0.2159,0.2228,0.2306,0.2363,0.2439,0.2437,0.2483,0.2522,0.2568,0.2607,0.2553,0.2612,0.2614,0.2461,0.2519,0.259,0.2677,0.2679,0.2681,0.2682,0,0.1756,0.1798,0.186,0.1947,0.197,0.2022,0.2128,0.219,0.2301,0.2363,0.2445,0.2492,0.2582,0.2565,0.2668,0.2638,0.2662,0.2684,0.2687,0.2526,0.2477,0.2601,0.2703,0.2701,0.27,0.2698,0.2697,0,0.1704,0.1795,0.1845,0.1876,0.198,0.2034,0.2099,0.221,0.2277,0.241,0.2476,0.2571,0.2645,0.2691,0.2746,0.2722,0.2843,0.2808,0.2686,0.2676,0.2767,0.2756,0.2871,0.2871,0.2871,0.287,0.287,0,0.1675,0.172,0.1831,0.1856,0.1926,0.2014,0.2105,0.2189,0.2319,0.2389,0.2504,0.2572,0.2685,0.2759,0.2781,0.2771,0.2874,0.2702,0.2688,0.2789,0.278,0.2775,0.2763,0.2873,0.2873,0.2872,0.2872,0,0.1602,0.1678,0.1738,0.1858,0.1902,0.1952,0.21,0.2158,0.2303,0.2403,0.2454,0.2611,0.2702,0.2786,0.2879,0.2805,0.2818,0.2788,0.2909,0.29,0.2614,0.2605,0.2647,0.2642,0.2638,0.2635,0.2632,0,0.1563,0.1589,0.172,0.1757,0.1817,0.1913,0.1973,0.2132,0.2193,0.2396,0.2424,0.2581,0.2659,0.2668,0.2768,0.2799,0.2767,0.2751,0.2656,0.2609,0.2593,0.2589,0.2585,0.2625,0.2624,0.2623,0.2622,0,0.1482,0.1546,0.1594,0.1672,0.1742,0.1808,0.1909,0.1945,0.2115,0.2271,0.234,0.2397,0.2498,0.2565,0.2619,0.2631,0.2744,0.2707,0.2714,0.2625,0.2583,0.257,0.2571,0.2608,0.261,0.2611,0.2612,0,0.1422,0.143,0.1503,0.1559,0.164,0.1667,0.1742,0.1814,0.19,0.2121,0.214,0.2309,0.2465,0.248,0.2526,0.2533,0.2485,0.2389,0.2412,0.2429,0.2318,0.223,0.214,0,0,0,0,0,0.1347,0.134,0.1382,0.1425,0.1503,0.1551,0.1676,0.1758,0.1926,0.1918,0.2025,0.2105,0.2184,0.2283,0.2246,0.2431,0.2494,0.2377,0.2394,0.2529,0.2546,0.2435,0,0,0,0,0,0,0.1289,0.1319,0.133,0.1304,0.1313,0.1376,0.1451,0.157,0.158,0.1766,0.1826,0.197,0.2086,0.2179,0.2201,0.2229,0.2195,0.2491,0.2486,0.252,0.2535,0.2548,0.244,0,0,0,0,0]},{"header":{"parameterUnit":"m.s-1","parameterCategory":2,"la1":30.2991,"la2":30.254,"lo1":-89.0895,"lo2":-89.0444,"dy":0.0017,"dx":0.0017,"nx":28,"ny":28,"refTime":"2026-02-14T03:00:00:Z","depth":"4","parameterNumber":3,"parameterNumberName":"V-component_of_CURRENTS"},"data":[0,0,0,0,0,0,0,0,0,0,0,0,0,0,0,0,0,0,0,0,0,0,0,0,0,0,0,0,0,0,0,0,0,0,0,0,0,0,0,0,0,0,0,0,0,0,0,0,0,0,0,0,0,0,0,0,0,0,0.0078,0.0078,0,0.0032,0.0032,0.0031,-0.0001,-0.0001,-0.0001,-0.0001,-0.0058,-0.0059,-0.006,0,0,0,0,0,0,0,0,0,0,0,0,0,0.0102,0.0102,0.0078,0.0078,0.0078,0.0032,0.0032,0.0031,-0.0001,-0.0001,-0.0001,-0.0001,-0.0057,-0.0059,-0.006,0,0,0,0,0,0,0,0,0,0,0,0,0,0.0076,0.0102,0.0079,0.0057,0.0055,0.0032,0.0031,0.0031,-0.0001,-0.0001,-0.0001,-0.0001,-0.0057,-0.0059,-0.0061,-0.007,0,0,-0.0067,-0.0068,0,0,0,0,0,0,0,0,0.0078,0.0076,0.0061,0.0059,0.0056,0.0022,0.0019,-0.0003,-0.0,0.0019,-0.0001,-0.0001,-0.0031,-0.0035,-0.0045,-0.0073,-0.0075,-0.0067,-0.0068,-0.0069,-0.007,0,0,0,0,0,0,0,0.008,0.0077,0.0059,0.006,0.0058,0.0037,0.0034,0.0015,-0.0005,0.0018,0.0015,0.0012,-0.0032,-0.0043,-0.0046,-0.0076,-0.0067,-0.0069,-0.007,-0.0071,-0.0111,-0.0111,0,0,0,0,0,0,0.009,0.0079,0.006,0.0058,0.0068,0.0037,0.0033,0.0032,-0.0005,-0.001,0.0012,0.0011,-0.0039,-0.0044,-0.0049,-0.0049,-0.0069,-0.0071,-0.0072,-0.0111,-0.0111,-0.0111,0,0,0,0,0,0,0.0091,0.0089,0.0062,0.0068,0.0063,0.0037,0.0037,0.0032,0.0024,-0.0008,-0.0014,0.0011,-0.0039,-0.0046,-0.0061,-0.0052,-0.0072,-0.0074,-0.0111,-0.0111,-0.0111,-0.0058,0,0,0,0,0,0,0.0092,0.009,0.0093,0.0069,0.0063,0.0056,0.0037,0.0031,0.0023,0.002,-0.0012,-0.0018,-0.004,-0.0058,-0.0063,-0.0055,-0.0076,-0.0112,-0.0111,-0.0111,-0.006,-0.0056,-0.0053,0,0,0,0,0,0.0093,0.0101,0.0094,0.0091,0.0069,0.0057,0.0052,0.0032,0.0023,0.0023,0.0001,-0.0017,-0.0059,-0.0059,-0.0066,-0.0058,-0.0112,-0.0111,-0.0111,-0.0062,-0.0057,-0.0053,0,0,0,0,0,0,0.0111,0.0098,0.009,0.0093,0.0079,0.0052,0.0051,0.0037,0.0019,0.0018,-0.0015,-0.0022,-0.0033,-0.0053,-0.0052,-0.0069,-0.0088,-0.0089,-0.0049,-0.0045,-0.0041,-0.0025,-0.0078,0,0,0,0,0,0.0118,0.0122,0.0103,0.0105,0.0102,0.0077,0.007,0.0058,0.0038,0.003,0.0007,-0.0017,-0.0037,-0.0046,-0.0067,-0.0075,-0.0101,-0.0075,-0.0071,-0.0068,-0.006,-0.0092,-0.0091,-0.0109,-0.0109,-0.0109,0,0,0.0126,0.0119,0.0121,0.011,0.0098,0.0101,0.0073,0.0068,0.0069,0.0027,0.0023,-0.0005,-0.0037,-0.0046,-0.0053,-0.0061,-0.0078,-0.0067,-0.0064,-0.0058,-0.0092,-0.009,-0.0088,-0.0109,-0.0109,-0.0109,0,0,0.0147,0.0138,0.015,0.0144,0.0133,0.012,0.0122,0.01,0.0089,0.008,0.005,0.003,0.0001,-0.0019,-0.0034,-0.0022,-0.0058,-0.003,0.0004,-0.0028,-0.0027,-0.0026,-0.0059,-0.0062,-0.0027,-0.0027,-0.0027,0,0.0157,0.017,0.0151,0.0162,0.0165,0.0134,0.015,0.0133,0.0109,0.0105,0.0087,0.0043,0.0014,0.0003,0.0006,-0.0013,-0.0038,-0.0009,-0.0022,-0.0022,-0.0022,-0.0057,-0.006,-0.0024,-0.0024,-0.0025,-0.0025,0,0.0187,0.0198,0.0205,0.0212,0.0211,0.0219,0.0201,0.0195,0.0178,0.016,0.0142,0.0097,0.0074,0.0058,0.0035,0.0025,0.0003,-0.0015,-0.0031,-0.0017,-0.0055,-0.0059,-0.002,-0.0021,-0.0022,-0.0023,0,0,0.0208,0.0225,0.0228,0.0247,0.0242,0.0248,0.0252,0.0248,0.0258,0.0218,0.0222,0.0176,0.0149,0.0131,0.0094,0.0064,0.0037,0.0031,0.0028,0.0003,-0.0035,-0.0054,-0.0062,0.0016,0.0016,0.0015,-0.0063,0,0.0238,0.0278,0.0275,0.0314,0.0334,0.0317,0.0325,0.0317,0.0302,0.0295,0.024,0.0229,0.0177,0.0169,0.013,0.0062,0.0029,0.006,-0.005,-0.0053,-0.0067,-0.0066,0.0014,-0.0066,-0.0068,-0.0068,-0.0069,0,0.0268,0.0294,0.034,0.0375,0.0382,0.0399,0.0418,0.0424,0.0401,0.0389,0.036,0.0315,0.0265,0.0221,0.0109,0.0131,0.0057,-0.0002,-0.0007,-0.0044,-0.008,-0.0085,-0.0078,-0.0077,-0.0076,-0.0076,-0.0075,0,0.0298,0.0341,0.0384,0.0395,0.0424,0.0443,0.0457,0.0453,0.0476,0.0453,0.0462,0.0385,0.0355,0.0251,0.012,0.0117,-0.0009,-0.003,-0.0119,-0.0122,-0.0104,-0.0104,-0.0105,-0.0105,-0.0105,-0.0105,-0.0104,0,0.0331,0.0367,0.0405,0.0429,0.0488,0.0489,0.0547,0.0544,0.0558,0.0592,0.0517,0.0515,0.0362,0.0268,0.0143,-0.0004,0.0004,-0.0111,-0.0141,-0.0081,-0.0078,-0.0108,-0.0107,-0.0108,-0.0107,-0.0106,-0.0106,0,0.0355,0.0376,0.0433,0.0481,0.0504,0.0546,0.0619,0.066,0.0659,0.0699,0.0697,0.0615,0.0484,0.032,0.0145,0.0035,-0.0108,-0.0162,-0.0085,-0.011,-0.0205,-0.0201,-0.0263,-0.0265,-0.0266,-0.0266,-0.0267,0,0.0369,0.04,0.0478,0.0524,0.0551,0.0622,0.0677,0.0709,0.0758,0.0758,0.0778,0.0669,0.0588,0.0334,0.0148,-0.0099,-0.0136,-0.0211,-0.021,-0.0197,-0.0221,-0.0214,-0.0209,-0.0269,-0.0269,-0.027,-0.027,0,0.0399,0.0426,0.0477,0.0573,0.0643,0.0733,0.0808,0.0852,0.0884,0.0885,0.0852,0.0712,0.056,0.0343,0.0145,-0.0031,-0.0163,-0.0223,-0.0222,-0.0222,-0.0205,-0.0226,-0.0219,-0.0274,-0.0273,-0.0273,-0.0272,0,0.0423,0.0462,0.0532,0.0619,0.0713,0.0807,0.085,0.0903,0.0946,0.0937,0.0922,0.075,0.0651,0.0378,0.0198,0.0015,-0.0033,-0.0088,-0.0095,-0.0093,-0.0029,0.0018,-0.0004,0,0,0,0,0,0.0447,0.0494,0.0574,0.0671,0.0767,0.0827,0.0922,0.0957,0.0985,0.0975,0.0952,0.0808,0.0536,0.0419,0.0235,0.0161,-0.0076,-0.0063,-0.0145,-0.0294,-0.029,-0.0247,0,0,0,0,0,0,0.046,0.0535,0.0574,0.07,0.0775,0.0889,0.0953,0.0978,0.0973,0.0966,0.0829,0.0756,0.0494,0.064,0.0229,0.0172,0.0094,-0.0191,-0.0195,-0.0297,-0.0293,-0.0289,-0.0244,0,0,0,0,0]}]]